{"data":{"norad_id":85061,"intl_designator":"","name":"UNKNOWN","alt_names":[],"object_type":"UNKNOWN","status":"UNKNOWN","operator":null,"country":null,"launch_date":null,"launch_site_code":null,"launch_vehicle":null,"mission":null,"orbit_class":"UNKNOWN","rcs_meters":null,"size_class":null,"mass_kg":null,"dimensions":null,"purposes":[],"wikipedia_slug":null,"has_3d_model":false,"image_url":null,"decayed_at":null,"tle_current":{"epoch":"2026-09-14T23:40:43.560192Z","epoch_age_seconds":491543,"freshness":"STALE","line1":"1 85061U          26257.98661528  .00002203  00000+0  85975-2 0  9999","line2":"2 85061 102.4021 272.6597 0274953  10.1973  46.8731 12.78823681591078","mean_motion":12.78823681,"eccentricity":0.0274953,"inclination_deg":102.4021,"raan_deg":272.6597,"arg_perigee_deg":10.1973,"mean_anomaly_deg":46.8731,"bstar":0.0085975,"rev_number":59107,"period_min":112.60348251246,"perigee_km":1133.8201795074,"apogee_km":1558.5862834403,"semimajor_km":7724.3402314739,"source":"CELESTRAK","updated_at":"2026-09-20T09:00:32.446121Z"}}}